Overview Statistics Trail Chart Weather Telemetry Raw packets
 

This is the latest recevied weather packets stored in our database for station/object W5ADC. If no packets are shown the sender has not sent any weather packets the latest 10 day(s).

<< 1 2 3 4 5 >>
Time Temp. Humidity Pressure Rain* Wind** Luminosity Snow
1788617412 30° C 71% 1011.4 hPa 0 mm - 233 W/m² -
1788617107 29.44° C 72% 1011.1 hPa 0 mm - 218 W/m² -
1788616806 29.44° C 72% 1011.1 hPa 0 mm - 149 W/m² -
1788616501 29.44° C 73% 1011.3 hPa 0 mm - 190 W/m² -
1788616196 29.44° C 72% 1011.3 hPa 0 mm - 172 W/m² -
1788615895 28.89° C 74% 1011.1 hPa 0 mm - 164 W/m² -
1788615595 28.33° C 75% 1011 hPa 0 mm - 149 W/m² -
1788615290 28.33° C 75% 1011.1 hPa 0 mm - 138 W/m² -
1788614990 27.78° C 76% 1011 hPa 0 mm - 56 W/m² -
1788614685 27.78° C 77% 1010.9 hPa 0 mm - 46 W/m² -
1788614379 27.78° C 78% 1010.8 hPa 0 mm - 45 W/m² -
1788614079 27.78° C 78% 1010.8 hPa 0 mm - 42 W/m² -
1788613770 27.22° C 78% 1010.8 hPa 0 mm - 41 W/m² -
1788613470 27.22° C 79% 1010.6 hPa 0 mm - 41 W/m² -
1788613170 27.22° C 79% 1010.8 hPa 0 mm - 36 W/m² -
1788612865 27.22° C 79% 1010.8 hPa 0 mm - 35 W/m² -
1788612560 26.67° C 80% 1010.7 hPa 0 mm - 32 W/m² -
1788612257 26.67° C 79% 1010.6 hPa 0 mm - 29 W/m² -
1788611956 26.67° C 79% 1010.5 hPa 0 mm - 26 W/m² -
1788611653 26.67° C 79% 1010.4 hPa 0 mm - 23 W/m² -
1788611348 26.67° C 79% 1010.3 hPa 0 mm - 18 W/m² -
1788611048 26.67° C 79% 1010.1 hPa 0 mm - 16 W/m² -
1788610743 26.67° C 79% 1010.4 hPa 0 mm - 13 W/m² -
1788610439 26.67° C 79% 1010.1 hPa 0 mm - 10 W/m² -
1788610138 26.67° C 79% 1010.2 hPa 0 mm - 6 W/m² -

* Rain latest hour (hover to see other rain measurements)
** Current wind speed in m/s (hover to see current wind gust speed)